EW9198 Weather Reports


time (UTC)temp
F
wind
direction
speed
knots
gust
knots
rain 1hr
in
rain 24hr
in
rain mn
in
humidity
%
barometer
mb
20240420164536 0 5 3.5 7.8 0.00 0.00 0.00 1014.9
20240420163031 0 5 4.3 7.0 0.00 0.00 0.00 1015.0
20240420161535 0 5 4.3 7.0 0.00 0.00 0.00 1014.9
20240420160001 0 5 2.6 5.2 0.00 0.00 0.00 1015.2
20240420154600 0 5 2.6 7.0 0.00 0.00 0.00 1015.1
20240420153056 0 5 3.5 9.6 0.00 0.00 0.00 1015.0
20240420151555 0 5 7.0 9.6 0.00 0.00 0.00 1015.1
20240420150051 0 5 7.8 9.6 0.00 0.00 0.00 1015.1
20240420144546 0 5 0.9 7.8 0.00 0.00 0.00 1015.4
20240420143045 0 5 4.3 8.7 0.00 0.00 0.00 1015.2
20240420141535 0 5 4.3 10.4 0.00 0.00 0.00 1015.1
20240420140030 0 5 6.1 9.6 0.00 0.00 0.00 1014.9
20240420134526 0 5 6.1 9.6 0.00 0.00 0.00 1014.7
20240420133019 0 5 7.0 11.3 0.00 0.00 0.00 1014.4
20240420131515 0 5 9.6 11.3 0.00 0.00 0.00 1014.4
20240420130010 0 5 8.7 10.4 0.00 0.00 0.00 1014.3
20240420124522 0 5 7.8 10.4 0.00 0.00 0.00 1014.3
20240420123058 0 5 5.2 8.7 0.00 0.00 0.00 1014.3
20240420121603 0 5 6.1 8.7 0.00 0.00 0.00 1014.3
20240420120049 0 5 4.3 7.0 0.00 0.00 0.00 1014.5
20240420114545 0 5 2.6 3.5 0.00 0.00 0.00 1014.6
20240420113048 0 5 0.0 2.6 0.00 0.00 0.00 1014.6
20240420111534 0 5 1.7 2.6 0.00 0.00 0.00 1014.4
20240420110033 0 5 0.9 3.5 0.00 0.00 0.00 1014.7
20240420104534 0 5 2.6 5.2 0.00 0.00 0.00 1014.7
20240420103019 0 5 5.2 7.0 0.00 0.00 0.00 1014.4
20240420101515 0 5 6.1 7.0 0.00 0.00 0.00 1014.4
20240420100011 0 5 4.3 7.0 0.00 0.00 0.00 1014.4
20240420094510 0 5 2.6 3.5 0.00 0.00 0.00 1014.6
20240420093105 0 5 0.9 2.6 0.00 0.00 0.00 1014.7
20240420091604 0 5 0.9 2.6 0.00 0.00 0.00 1014.8
20240420090050 0 5 0.9 5.2 0.00 0.00 0.00 1014.8
20240420084550 0 5 3.5 7.0 0.00 0.00 0.00 1014.6
20240420083042 0 5 5.2 7.0 0.00 0.00 0.00 1014.4
20240420081535 0 5 0.0 2.6 0.00 0.00 0.00 1014.7
20240420080035 0 5 2.6 3.5 0.00 0.00 0.00 1014.7
20240420074526 0 5 1.7 3.5 0.00 0.00 0.00 1014.6
20240420073024 0 5 1.7 3.5 0.00 0.00 0.00 1014.7
20240420071516 0 5 1.7 2.6 0.00 0.00 0.00 1014.6
20240420070025 0 5 0.0 0.0 0.00 0.00 0.00 1014.9
20240420064506 0 5 0.0 0.0 0.00 0.00 0.00 1015.0
20240420063003 0 5 0.0 0.0 0.00 0.00 0.00 1014.9
20240420061559 0 5 0.0 1.7 0.00 0.00 0.00 1014.8
20240420060052 0 5 3.5 4.3 0.00 0.00 0.00 1014.7
20240420054547 0 5 0.0 0.0 0.00 0.00 0.00 1014.9
20240420053043 0 5 0.0 1.7 0.00 0.00 0.00 1014.9
20240420051508 0 5 0.0 0.0 0.00 0.00 0.00 1014.9
20240420050009 0 5 0.0 1.7 0.00 0.00 0.00 1014.6
20240420044530 0 5 0.0 2.6 0.00 0.00 0.00 1014.5
20240420043031 0 5 0.9 2.6 0.00 0.00 0.00 1014.3
20240420041529 0 5 3.5 7.0 0.00 0.00 0.00 1014.0
20240420040014 0 5 4.3 7.0 0.00 0.00 0.00 1014.1
20240420034510 0 5 3.5 7.8 0.00 0.00 0.00 1014.1
20240420033006 0 5 2.6 5.2 0.00 0.00 0.00 1014.2
20240420031608 0 5 4.3 8.7 0.00 0.00 0.00 1013.9
20240420030059 0 5 6.1 8.7 0.00 0.00 0.00 1013.8
20240420024551 0 5 6.1 7.8 0.00 0.00 0.00 1013.7
20240420023047 0 5 3.5 7.0 0.00 0.00 0.00 1013.7
20240420021539 0 5 4.3 5.2 0.00 0.00 0.00 1013.5
20240420020036 0 5 3.5 7.0 0.00 0.00 0.00 1013.4
20240420014535 0 5 3.5 7.0 0.00 0.00 0.00 1013.3
20240420013027 0 5 2.6 4.3 0.00 0.00 0.00 1013.1
20240420011521 0 5 1.7 2.6 0.00 0.00 0.00 1012.8
20240420010016 0 5 0.0 0.9 0.00 0.00 0.00 1012.6
20240420004513 0 5 1.7 3.5 0.00 0.00 0.00 1012.6
20240420003006 0 5 3.5 4.3 0.00 0.00 0.00 1012.4
20240420001502 0 5 0.9 2.6 0.00 0.00 0.00 1012.6
20240420000110 0 5 0.9 1.7 0.00 0.00 0.00 1012.9
20240419234600 0 5 0.0 0.0 0.00 0.00 0.00 1013.1
20240419233059 0 5 0.0 1.7 0.00 0.00 0.00 1012.9
20240419231605 0 5 1.7 2.6 0.00 0.00 0.00 1013.0
20240419230056 0 5 1.7 2.6 0.00 0.00 0.00 1013.1
20240419224555 0 5 1.7 3.5 0.00 0.00 0.00 1013.0
20240419223054 0 5 2.6 3.5 0.00 0.00 0.00 1013.0
20240419221550 0 5 0.9 2.6 0.00 0.00 0.00 1013.1
20240419220052 0 5 0.9 1.7 0.00 0.00 0.00 1013.1
20240419214549 0 5 0.0 2.6 0.00 0.00 0.00 1013.4
20240419213049 0 5 0.9 1.7 0.00 0.00 0.00 1013.4
20240419211546 0 5 0.9 2.6 0.00 0.00 0.00 1013.4
20240419210045 0 5 0.0 1.7 0.00 0.00 0.00 1013.5
20240419204544 0 5 0.0 2.6 0.00 0.00 0.00 1013.7
20240419203052 0 5 1.7 4.3 0.00 0.00 0.00 1013.8
20240419201544 0 5 0.0 1.7 0.00 0.00 0.00 1014.0
20240419200044 0 5 0.9 3.5 0.00 0.00 0.00 1014.1
20240419194540 0 5 0.9 2.6 0.00 0.00 0.00 1014.0
20240419193036 0 5 0.9 2.6 0.00 0.00 0.00 1013.9
20240419191532 0 5 0.9 1.7 0.00 0.00 0.00 1014.1
20240419190058 0 5 0.9 2.6 0.00 0.00 0.00 1014.2
20240419184554 0 5 2.6 3.5 0.00 0.00 0.00 1014.4
20240419183047 0 5 1.7 2.6 0.00 0.00 0.00 1014.5
20240419181549 0 5 0.9 2.6 0.00 0.00 0.00 1014.5
20240419180038 0 5 1.7 2.6 0.00 0.00 0.00 1014.7
20240419174539 0 5 1.7 2.6 0.00 0.00 0.00 1015.0
20240419173034 0 5 0.9 2.6 0.00 0.00 0.00 1015.0
20240419171537 0 5 0.9 2.6 0.00 0.00 0.00 1015.4
20240419170019 0 5 0.9 1.7 0.00 0.00 0.00 1015.4